TimeCST,TemperatureF,Dew PointF,Humidity,Sea Level PressureIn,VisibilityMPH,Wind Direction,Wind SpeedMPH,Gust SpeedMPH,PrecipitationIn,Events,Conditions,WindDirDegrees,DateUTC
12:55 AM,46.9,33.4,59,30.05,10.0,SSW,12.7,-,N/A,,Clear,210,2012-11-30 06:55:00
1:55 AM,50.2,32.7,51,30.04,10.0,SSW,19.6,-,N/A,,Clear,210,2012-11-30 07:55:00
2:55 AM,49.3,32.4,52,30.04,10.0,SSW,16.1,-,N/A,,Clear,210,2012-11-30 08:55:00
3:55 AM,42.3,32.2,67,30.06,10.0,SSW,10.4,-,N/A,,Clear,210,2012-11-30 09:55:00
4:55 AM,39.9,32.2,74,30.05,10.0,SSW,11.5,-,N/A,,Clear,200,2012-11-30 10:55:00
5:55 AM,39.0,31.8,75,30.07,10.0,SSW,10.4,-,N/A,,Clear,200,2012-11-30 11:55:00
6:55 AM,38.8,31.8,76,30.08,10.0,SSW,10.4,-,N/A,,Clear,210,2012-11-30 12:55:00
7:55 AM,41.7,33.1,71,30.09,10.0,SSW,9.2,-,N/A,,Clear,210,2012-11-30 13:55:00
8:55 AM,47.7,34.0,59,30.10,10.0,SW,10.4,-,N/A,,Clear,230,2012-11-30 14:55:00
9:55 AM,53.4,38.8,58,30.11,10.0,WSW,11.5,-,N/A,,Clear,240,2012-11-30 15:55:00
10:55 AM,55.6,40.5,57,30.10,10.0,WSW,12.7,-,N/A,,Clear,240,2012-11-30 16:55:00
11:55 AM,59.5,42.1,52,30.08,10.0,SW,11.5,-,N/A,,Clear,220,2012-11-30 17:55:00
12:55 PM,62.1,43.0,50,30.06,10.0,West,8.1,-,N/A,,Clear,260,2012-11-30 18:55:00
1:55 PM,64.0,43.7,48,30.04,10.0,Variable,4.6,-,N/A,,Clear,0,2012-11-30 19:55:00
2:55 PM,64.6,44.4,48,30.04,10.0,SW,5.8,-,N/A,,Clear,230,2012-11-30 20:55:00
3:55 PM,58.8,46.4,63,30.05,10.0,SSW,4.6,-,N/A,,Clear,200,2012-11-30 21:55:00
4:55 PM,57.0,46.0,67,30.05,10.0,Calm,Calm,-,N/A,,Partly Cloudy,0,2012-11-30 22:55:00
5:55 PM,53.8,46.2,76,30.05,10.0,South,3.5,-,N/A,,Clear,180,2012-11-30 23:55:00
6:55 PM,53.1,46.6,79,30.05,10.0,SSE,3.5,-,N/A,,Clear,160,2012-12-01 00:55:00
7:55 PM,50.9,46.6,85,30.06,10.0,Calm,Calm,-,N/A,,Scattered Clouds,0,2012-12-01 01:55:00
8:55 PM,50.7,47.3,88,30.05,10.0,East,3.5,-,N/A,,Overcast,100,2012-12-01 02:55:00
9:55 PM,49.3,46.4,90,30.03,10.0,SE,5.8,-,N/A,,Clear,130,2012-12-01 03:55:00
10:55 PM,47.1,46.9,99,30.03,10.0,SSE,5.8,-,N/A,,Clear,150,2012-12-01 04:55:00
11:55 PM,50.5,49.8,97,30.03,10.0,SSE,6.9,-,N/A,,Clear,160,2012-12-01 05:55:00